User: anonymous   Login
Location: Unspecified
(0.0000°N, 0.0000°E)
Time: 07:17:00
(UTC+00:00)
Language:

IRVINE01 - Orbit

View from above orbital plane
View from above orbital plane
View from above satellite
View from above satellite

Ground track
Ground track

The orbit data is extracted from the following two-line orbital elements,

1 43693U 18088D   20223.89604221 +.00002606 +00000-0 +10834-3 0  9994
2 43693 085.0341 040.9617 0020057 090.8015 269.5526 15.23079568097133
Epoch (UTC): 10 August 2020 21:30:18
Eccentricity: 0.0020057
inclination: 85.0341°
perigee height: 483 km
apogee height: 510 km
right ascension of ascending node: 40.9617°
argument of perigee: 90.8015°
revolutions per day: 15.23079568
mean anomaly at epoch: 269.5526°
orbit number at epoch: 9713

The dashed part of the orbit path shows where the satellite is in the earth's shadow,  

DLR